Weather in Plotinka

Russia / Nizhny Novgorod Oblast'     56°11′10″N   44°46′21″E
temp.,
°C
wind,
m/s
gust,
m/s
humid.,
%
clouds,
%
prec.,
mm/h
press.,
hPa
HPBL,
m
19 september, sun
sun1900:00+2nne227813 0.0 102616
03:00+1nne1188100 0.0 102610
06:00+1nne118398 0.0 102711
09:00+6ne225744 0.0 1027484
12:00+10ne2242100 0.0 10261236
15:00+10ne2239100 0.0 10261350
18:00+6ne2459100 0.0 102676
21:00+4ene2569100 0.0 102687
20 september, mon
mon2000:00+3ene2776100 0.0 1027166
03:00+2ene41077100 0.0 1027340
06:00+2e41178100 0.0 1027423
09:00+4e51165100 0.0 1027578
12:00+8e5749100 0.0 10261021
15:00+9e5848100 0.0 10251161
18:00+7e4950100 0.0 10241009
21:00+7e51051100 0.0 1024866
21 september, tue
tue2100:00+6ese51160100 0.0 1024861
03:00+7e51162100 0.1 1022926
06:00+7e51264100 0.0 1022800
09:00+6e51377100 0.4 1021703
12:00+6e61374100 0.2 1021771
15:00+6e61380100 0.9 1020815
18:00+7e51383100 0.5 1019735
21:00+7e51381100 0.6 1019765
22 september, wed
wed2200:00+7e51376100 0.0 1017619
03:00+8e51265100 0.0 1016692
06:00+7e51375100 0.4 1015626
09:00+7ene51376100 1.1 1014697
12:00+7e51492100 5.1 1013841
15:00+8e41095100 7.4 1013730
18:00+9ese4995100 0.1 1015448
21:00+9ese3896100 0.1 1016313
23 september, thu
thu2300:00+9e3798100 0.1 1016227
03:00+9ese3797100 0.1 1016217
06:00+9e2799100 0.0 1017239
09:00+10ese3897100 1.8 1017443
12:00+10sse3792100 0.9 1017491
15:00+13sse368672 1.1 1017635
18:00+9sw229293 0.8 101813
21:00+9sse2391100 0.8 101952